User: anonymous   Login
Location: Unspecified
(90.0000°S, 0.0000°E)
Time: 17:16:59
(UTC+00:00)
Language:

AO-92 - Orbit

View from above orbital plane
View from above orbital plane
View from above satellite
View from above satellite

Ground track
Ground track

The orbit data is extracted from the following two-line orbital elements,

1 43137U 18004AC  19293.76167908  .00000895  00000-0  40304-4 0  9996
2 43137  97.4755   1.2168 0009466 171.2984 188.8418 15.23651294 98386
Epoch (UTC): 20 October 2019 18:16:49
Eccentricity: 0.0009466
inclination: 97.4755°
perigee height: 488 km
apogee height: 501 km
right ascension of ascending node: 1.2168°
argument of perigee: 171.2984°
revolutions per day: 15.23651294
mean anomaly at epoch: 188.8418°
orbit number at epoch: 9838

The dashed part of the orbit path shows where the satellite is in the earth's shadow,  

DLR